EHI
0 0 0 0 0 0 0 0 0 0 0 0 0 0 0 0 0 0 1 2 2 1 0 0 0 0 0 0 1 1 0 0 0 0 0 0 0 0 0 0 0 0 0
0 0 0 0 0 0 0 0 0 0 0 0 0 0 0 0 0 0 0 1 2 2 1 0 0 0 1 1 2 1 1 0 0 0 0 0 0 0 0 0 0 0 0
1 1 1 0 0 0 0 0 0 0 0 0 0 0 0 0 0 0 0 0 2 2 2 0 0 0 1 2 2 1 1 1 1 0 0 0 0 0 0 0 0 0 0
1 2 1 1 1 0 0 0 0 0 0 0 0 0 0 0 0 0 0 0 1 1 1 0 1 1 1 1 1 0 1 2 2 1 1 0 0 0 0 0 0 0 0
1 1 1 0 0 0 0 0 1 1 1 1 1 0 0 0 0 0 0 0 0 0 0 0 1 2 1 0 0 1 1 2 3 2 2 1 0 0 0 0 0 0 0
1 0 0 0 0 0 0 1 2 2 2 2 2 1 0 0 0 0 0 0 0 0 0 0 1 2 2 1 1 2 2 2 2 2 2 1 0 0 0 0 0 0 0
1 0 0 0 0 1 1 2 2 2 2 3 2 1 0 0 0 0 0 0 0 0 0 1 1 2 3 2 1 1 1 1 1 1 1 1 1 1 2 1 1 0 0
1 2 2 1 1 2 2 1 2 1 1 2 3 1 0 0 0 0 0 0 0 0 1 1 2 2 2 1 0 0 0 0 0 1 0 1 2 2 2 2 2 1 0
5 5 5 3 2 3 3 2 1 2 2 3 4 3 1 2 2 1 1 0 0 1 2 1 1 1 0 1 1 0 0 0 0 0 0 1 1 1 1 2 2 2 1
9 8 6 6 5 5 5 3 2 3 4 5 5 4 3 3 3 3 2 1 1 2 2 1 0 0 1 1 1 0 0 0 0 0 0 0 0 0 0 1 1 2 3
14 11 8 8 7 5 4 3 3 5 7 6 4 3 2 3 3 3 2 2 2 1 1 1 1 1 1 1 1 0 0 0 0 0 0 0 0 0 1 1 1 3 3
19 15 11 9 8 6 5 5 4 5 6 5 4 3 2 2 3 4 2 1 1 1 1 1 1 1 1 1 0 0 0 0 0 0 0 0 0 0 1 2 2 2 2
19 17 13 11 10 9 9 8 6 5 6 5 4 3 2 2 3 3 2 0 0 1 1 1 1 1 0 0 0 0 0 0 0 0 0 0 0 0 1 1 1 1 1
15 14 15 13 12 12 11 10 7 6 7 6 4 3 2 2 2 2 2 1 0 0 0 0 0 0 0 0 0 0 0 0 0 0 0 0 0 0 0 0 0 0 0
13 14 15 15 15 14 13 11 9 9 9 8 5 4 4 3 3 3 3 4 3 1 0 0 0 0 0 0 0 0 0 0 0 0 0 0 0 0 0 0 0 0 0
17 16 17 17 17 15 14 12 10 11 12 11 6 4 5 5 5 6 6 7 7 5 2 0 0 1 1 1 0 0 0 0 0 0 0 0 0 0 0 0 0 0 0
20 19 19 19 17 13 11 10 8 9 11 10 6 4 4 5 7 9 9 8 8 7 4 2 0 1 1 1 0 1 0 0 0 0 0 0 0 0 0 0 0 0 0
22 20 19 20 17 12 9 8 6 6 7 7 6 5 4 5 8 11 10 8 7 6 5 3 1 0 0 0 0 0 0 0 0 0 0 0 0 0 0 0 0 0 0
23 20 19 19 16 11 8 8 8 7 7 6 6 6 5 6 9 10 10 9 7 6 5 3 1 0 0 0 0 0 0 0 0 0 0 0 0 0 0 0 0 0 0
23 22 19 17 14 11 9 10 10 10 8 8 9 9 7 6 7 9 9 9 8 6 5 3 1 0 0 0 0 0 0 0 0 0 0 0 0 0 0 0 0 0 0
23 22 20 18 14 12 10 10 10 9 9 9 11 11 9 6 5 7 7 7 6 4 3 3 2 0 0 0 0 0 0 0 0 0 0 0 0 0 0 0 0 0 0
21 20 19 19 16 12 8 7 7 7 8 9 11 11 8 5 4 4 4 4 3 2 2 2 1 0 0 0 0 0 0 0 0 1 1 0 0 0 0 0 0 0 0
20 18 18 18 15 10 6 3 3 5 7 8 7 7 6 3 2 2 1 1 1 1 0 0 0 0 0 0 0 0 0 0 1 2 2 1 0 0 0 0 0 0 0
18 17 17 16 13 8 4 1 2 4 6 5 4 4 4 3 1 0 0 0 0 0 0 0 0 0 0 0 0 1 1 1 1 3 3 2 1 0 0 0 0 0 0
17 16 15 14 12 8 3 1 2 5 5 4 3 3 3 2 1 0 0 0 0 0 0 0 0 0 0 0 0 1 2 1 2 3 3 2 1 0 0 0 0 0 0
16 16 14 13 11 7 4 1 1 4 5 4 3 3 2 1 0 0 0 0 0 0 0 0 0 0 0 0 0 1 2 2 2 3 3 2 1 0 0 0 0 0 0
Wind_Speed
3 3 2 1 1 2 3 2 2 2 0 1 1 0 0 0 0 1 4 8 7 6 6 7 7 7 8 8 8 7 7 7 7 7 7 7 7 7 7 7 7 7 7
2 2 2 2 1 1 1 0 1 1 1 0 1 1 2 1 1 2 1 6 8 7 7 6 7 7 8 8 9 9 9 8 8 8 8 8 8 8 8 8 8 8 8
2 1 1 2 1 1 1 2 1 1 2 2 2 2 2 2 2 2 2 2 5 9 8 7 7 7 8 8 9 9 10 10 10 9 9 9 9 9 9 9 9 9 9
2 2 2 2 1 2 2 2 2 2 1 2 2 2 2 2 3 3 3 3 3 3 8 9 8 7 8 9 10 10 10 11 11 11 11 11 11 10 10 11 10 10 10
3 3 2 0 2 2 2 3 1 2 2 2 3 3 3 3 3 4 4 4 4 4 3 7 9 8 8 9 9 10 10 10 10 11 12 13 12 12 11 11 11 11 11
4 4 3 3 3 2 2 2 2 3 3 3 4 2 3 3 3 4 5 4 4 5 5 4 6 8 9 8 7 8 8 8 8 9 9 10 11 11 11 12 12 12 12
4 4 4 3 4 3 3 4 4 4 4 3 3 4 4 5 4 4 4 4 4 4 4 4 4 4 4 9 7 7 7 7 8 8 9 8 8 8 9 9 10 10 11
5 5 5 4 4 3 4 4 4 4 3 3 3 4 3 3 4 4 3 3 4 3 3 4 3 3 3 3 4 7 7 7 8 8 8 9 9 9 9 9 10 10 11
6 5 5 5 4 5 4 4 4 5 4 3 3 3 4 3 1 2 3 3 3 2 3 2 3 3 4 3 2 5 6 6 7 8 8 8 8 8 8 9 9 10 11
6 5 5 5 5 5 4 5 4 4 5 4 3 3 4 4 4 2 3 2 2 2 3 3 3 2 3 3 2 1 2 3 5 6 7 7 7 7 7 8 9 9 9
5 5 5 4 4 4 4 5 4 5 4 4 3 3 4 3 5 4 4 2 1 1 1 2 2 2 2 2 1 0 2 1 2 4 5 6 6 5 6 7 8 8 7
4 5 5 4 4 4 4 5 5 5 5 4 4 4 3 3 3 4 4 4 2 1 1 1 2 2 1 1 1 4 4 2 2 2 3 2 3 3 3 4 5 5 5
3 4 4 4 4 4 4 5 5 5 5 5 4 4 3 4 3 4 4 4 3 1 0 0 1 1 2 2 2 4 4 4 3 2 3 2 2 3 3 3 3 3 3
3 3 4 4 4 4 4 4 4 4 3 4 4 4 3 3 3 3 4 3 3 2 0 1 1 2 2 2 4 3 4 5 4 3 3 3 3 3 3 4 4 3 3
3 3 3 3 3 3 3 3 3 3 2 3 3 3 3 3 3 3 3 3 3 3 1 1 1 2 2 2 3 3 4 8 7 6 5 5 5 5 5 5 6 6 5
2 2 3 2 2 2 2 3 2 2 2 1 1 2 2 2 2 2 3 2 2 2 1 1 1 2 2 2 5 4 5 9 9 8 8 8 8 8 8 8 8 8 8
2 2 2 2 2 1 1 1 1 1 1 1 0 0 1 1 1 1 1 1 0 1 1 0 1 2 3 3 3 3 3 4 6 9 9 9 9 9 9 10 10 10 9
2 2 2 2 1 1 1 1 1 1 1 1 1 0 0 1 1 1 1 0 1 1 2 2 1 2 3 3 3 2 3 4 5 10 10 9 10 10 10 10 10 10 9
2 1 1 2 1 1 1 1 1 1 1 1 1 1 1 1 1 1 1 0 1 1 1 2 2 2 2 3 3 4 5 4 4 7 8 9 9 10 10 10 10 10 10
1 1 1 1 1 1 1 1 1 1 1 2 2 2 2 2 1 1 1 1 1 2 2 2 3 3 3 3 2 3 3 3 3 4 5 6 9 10 11 11 11 11 10
2 2 2 2 2 1 1 1 2 2 2 2 2 3 3 5 6 4 2 2 1 1 2 2 3 3 3 2 2 1 2 2 3 3 3 4 5 5 6 9 10 11 10
4 4 3 3 3 3 5 4 2 3 2 3 3 4 5 5 6 7 8 8 5 2 2 2 3 3 3 2 2 1 1 1 2 2 2 3 3 4 5 6 9 9 9
5 4 4 4 4 5 5 4 2 3 4 4 4 4 4 5 4 5 7 7 8 8 5 3 3 3 3 2 1 2 2 2 3 2 1 2 3 4 4 8 9 7 7
5 5 5 5 5 5 5 3 2 4 5 5 5 5 5 5 5 4 6 6 7 7 6 5 5 4 4 2 1 1 1 2 3 2 1 2 2 2 4 5 8 6 5
6 5 5 5 6 5 5 3 2 6 6 6 6 6 6 6 6 4 5 6 7 7 8 9 8 6 5 4 2 1 1 1 2 3 2 1 1 1 2 3 6 6 5
6 6 6 6 6 6 6 5 3 5 6 6 6 8 10 8 7 6 6 6 6 6 5 6 6 5 5 5 3 3 2 1 2 2 2 1 0 0 1 2 2 3 4
Wind_Direction
127 122 113 106 129 121 145 150 131 118 144 199 246 159 265 240 165 189 132 157 183 200 205 208 208 210 211 210 209 209 212 211 211 212 214 214 213 210 208 209 209 205 205
121 132 152 154 152 158 94 157 150 175 226 242 243 234 255 243 204 229 196 164 186 203 213 220 221 221 222 222 220 217 218 221 223 222 223 223 222 220 219 221 220 217 216
148 187 158 184 170 163 172 219 220 228 230 227 233 242 233 240 238 233 245 229 190 191 204 218 224 226 227 227 225 225 222 222 227 229 229 229 228 228 228 227 227 226 224
194 221 217 196 171 217 218 210 238 244 245 259 253 255 241 215 230 227 229 226 236 209 193 202 219 227 231 233 231 229 226 227 229 230 230 231 230 230 231 232 232 231 231
198 219 237 210 229 229 242 258 212 266 262 267 255 229 239 228 225 233 239 238 229 237 229 182 199 217 229 236 237 237 234 232 232 236 236 234 232 231 232 234 233 234 234
203 220 217 212 246 248 244 261 272 259 269 264 273 276 262 252 240 240 247 243 235 232 235 229 208 206 213 228 237 241 239 235 231 237 242 241 237 232 230 233 234 235 237
210 223 245 212 235 242 250 254 256 245 250 260 263 262 242 231 233 238 243 253 242 236 232 234 239 240 203 203 219 233 238 236 236 239 239 239 242 238 232 232 233 235 238
221 218 229 238 230 241 245 252 255 270 265 249 266 275 259 215 208 221 226 233 250 245 237 228 229 234 256 228 191 208 230 239 243 240 240 239 240 240 236 234 236 235 235
226 235 228 242 243 249 248 251 248 252 264 256 253 273 285 289 299 192 214 230 243 258 255 243 231 236 243 250 238 198 215 231 245 250 250 247 242 239 235 236 238 239 238
230 229 232 239 247 251 248 249 241 251 256 261 247 247 270 301 290 273 218 215 225 245 272 285 277 250 244 244 235 339 179 227 248 255 258 257 251 242 238 239 242 241 239
226 233 232 236 240 248 252 263 263 256 254 257 259 253 248 250 254 271 280 274 242 255 272 277 284 286 273 257 264 357 123 179 255 270 269 265 261 257 252 248 249 250 248
223 226 233 236 241 246 245 251 252 245 253 259 260 261 259 260 260 258 266 274 273 280 304 318 307 316 330 347 36 62 77 68 31 346 318 299 298 300 293 280 271 266 261
227 221 230 233 242 245 247 249 246 253 243 243 248 259 263 261 271 268 268 272 278 276 277 335 357 12 22 28 47 71 75 66 51 33 35 32 14 4 355 341 325 308 295
239 229 227 232 239 245 243 239 245 243 240 243 248 254 263 271 267 263 263 267 266 260 235 349 25 40 31 32 48 64 68 77 72 59 56 54 47 39 33 27 20 11 4
237 229 228 230 236 241 245 237 232 240 237 241 250 245 252 260 258 262 261 254 258 266 282 26 22 37 44 55 54 60 63 71 72 69 65 62 57 55 53 50 51 49 48
236 232 223 226 230 226 223 230 224 225 227 235 256 266 257 264 264 253 255 249 247 248 259 11 38 46 50 69 73 73 75 79 71 72 69 67 65 61 58 58 58 57 57
218 222 218 215 219 213 198 197 211 195 186 191 228 252 266 298 296 293 279 266 182 179 171 117 58 68 60 66 73 76 80 77 76 76 74 70 66 63 61 59 56 56 57
203 204 191 191 201 189 180 185 192 185 182 186 163 110 26 59 52 336 336 24 135 166 166 153 117 86 80 88 87 77 74 74 77 85 85 79 74 70 66 62 60 58 56
182 183 171 167 170 175 175 169 157 154 166 138 98 93 74 72 72 57 29 92 149 156 159 147 130 104 96 86 88 81 79 74 80 100 99 94 85 79 72 68 65 62 59
141 127 123 130 130 133 123 126 123 119 116 102 82 71 61 60 61 98 90 81 101 121 121 126 121 114 100 92 86 88 88 81 64 67 70 88 101 97 84 75 69 65 62
112 107 105 97 94 99 62 68 106 106 110 107 90 83 73 66 51 44 48 62 97 117 123 121 113 104 89 85 74 69 85 83 76 64 64 77 91 82 85 81 71 65 65
93 89 88 87 79 68 52 43 67 98 99 103 99 97 98 89 84 74 62 54 45 59 73 90 97 99 86 68 57 68 65 59 68 61 46 62 71 76 76 73 72 72 71
96 87 82 83 81 64 57 59 60 101 92 83 84 88 85 85 90 93 91 86 67 53 45 48 84 78 85 71 57 80 55 36 47 64 63 80 69 74 81 83 87 81 77
101 95 87 84 83 66 51 63 85 99 88 84 82 81 83 77 64 75 88 84 78 62 52 58 70 67 70 52 30 116 142 128 126 94 10 63 78 73 85 98 107 99 91
101 97 90 86 86 75 48 40 77 100 91 83 77 70 77 84 54 59 92 90 86 86 83 80 79 86 89 78 23 49 79 128 116 95 37 15 69 75 99 112 120 126 122
104 101 91 85 83 79 53 29 19 104 100 97 89 82 69 69 60 47 85 90 86 79 81 88 92 98 97 97 84 29 20 30 77 91 60 330 86 195 142 109 113 143 146